Weather History for Madisonville, KY

Change the Weather History Date:

Friday, May 10, 2013

  Actual Average (KOWB) Record (KOWB)
Temperature  
Mean Temperature 68 °F -  
Max Temperature 73 °F 76 °F 89 °F (1936)
Min Temperature 63 °F 49 °F 35 °F (1947)
Cooling Degree Days 3    
Growing Degree Days 18 (Base 50)    
Moisture  
Dew Point 64 °F    
Average Humidity 89    
Maximum Humidity 100    
Minimum Humidity 74    
Precipitation  
Precipitation 0.80 in - - ()
Sea Level Pressure  
Sea Level Pressure 29.90 in    
Wind  
Wind Speed 5 mph (WSW)    
Max Wind Speed 12 mph    
Max Gust Speed 22 mph    
Visibility 9 miles    
Events Rain    
Averages and records for this station are not official NWS values.
T = Trace of Precipitation, MM = Missing Value Source: NWS Daily Summary

Daily Weather History Graph

Daily Weather History Graph

Search for Another Location

Airport:

Trip Planner

Search our weather history database for the weather conditions in past years. The results will help you decide how hot, cold, wet, or windy it might be!

Date:

Astronomy

May. 10, 2013 Rise Set
Actual Time 5:44 AM CDT 7:47 PM CDT
Civil Twilight 5:16 AM CDT 8:16 PM CDT
Nautical Twilight 4:41 AM CDT 8:51 PM CDT
Astronomical Twilight 4:03 AM CDT 9:29 PM CDT
Moon 6:09 AM CDT (5/10) 8:36 PM CDT (5/10)
Length of Visible Light 15h 00m
Length of Day
14h 02m
New Moon, 0% of the Moon is Illuminated
May 10
New Moon
May 17
First Quarter
May 24
Full
May 31
Last Quarter
Jun 8
New

Hourly Weather History & Observations

Time (CDT) Temp. Dew Point Humidity Pressure Visibility Wind Dir Wind Speed Gust Speed Precip Events Conditions
12:15 AM 70.9 °F 62.6 °F 75% 29.96 in 10.0 mi SSW 5.8 mph - N/A   Overcast
12:55 AM 70.0 °F 62.6 °F 77% 29.95 in 10.0 mi SSW 5.8 mph - N/A   Scattered Clouds
1:15 AM 69.1 °F 62.6 °F 80% 29.95 in 10.0 mi SSW 6.9 mph - N/A   Clear
1:35 AM 69.8 °F 62.6 °F 78% 29.94 in 10.0 mi SSW 6.9 mph - N/A   Mostly Cloudy
1:55 AM 69.1 °F 62.6 °F 80% 29.93 in 10.0 mi SSW 4.6 mph - N/A   Scattered Clouds
2:15 AM 68.9 °F 62.6 °F 80% 29.92 in 10.0 mi South 4.6 mph - N/A   Clear
2:35 AM 68.9 °F 62.6 °F 80% 29.92 in 10.0 mi SSW 5.8 mph - N/A   Clear
2:55 AM 68.0 °F 62.6 °F 83% 29.91 in 10.0 mi South 3.5 mph - N/A   Clear
3:15 AM 67.5 °F 62.6 °F 84% 29.92 in 10.0 mi SSW 3.5 mph - N/A   Clear
3:35 AM 67.3 °F 62.6 °F 85% 29.91 in 10.0 mi Calm Calm - N/A   Clear
3:55 AM 66.7 °F 62.6 °F 86% 29.91 in 10.0 mi Calm Calm - N/A   Scattered Clouds
4:15 AM 66.6 °F 62.6 °F 87% 29.89 in 10.0 mi Calm Calm - N/A   Clear
4:35 AM 65.3 °F 62.8 °F 92% 29.88 in 10.0 mi SSE 3.5 mph - N/A   Clear
4:55 AM 64.8 °F 63.0 °F 94% 29.89 in 10.0 mi South 3.5 mph - N/A   Clear
5:15 AM 66.2 °F 63.0 °F 89% 29.89 in 10.0 mi South 3.5 mph - N/A   Mostly Cloudy
5:35 AM 66.4 °F 63.1 °F 89% 29.89 in 10.0 mi Calm Calm - N/A   Overcast
5:55 AM 66.2 °F 63.5 °F 91% 29.90 in 10.0 mi Calm Calm - N/A   Overcast
6:15 AM 66.7 °F 63.9 °F 90% 29.91 in 10.0 mi West 11.5 mph 21.9 mph N/A Rain Rain
6:35 AM 66.0 °F 64.9 °F 96% 29.91 in 7.0 mi West 10.4 mph - 0.16 in Rain Light Rain
7:15 AM 65.7 °F 65.5 °F 99% 29.91 in 5.0 mi Calm Calm - 0.01 in Rain Light Rain
7:35 AM 65.8 °F 65.5 °F 99% 29.91 in 5.0 mi SSW 3.5 mph - 0.03 in Rain Light Rain
8:15 AM 65.8 °F 65.5 °F 99% 29.91 in 7.0 mi SSW 4.6 mph - 0.01 in Rain Light Rain
8:35 AM 65.8 °F 65.7 °F 99% 29.93 in 7.0 mi SW 8.1 mph - 0.01 in Rain Light Rain
8:55 AM 65.7 °F 65.3 °F 99% 29.93 in 7.0 mi SW 5.8 mph - 0.03 in Rain Rain
9:15 AM 65.7 °F 65.5 °F 99% 29.93 in 5.0 mi SW 6.9 mph - 0.02 in Rain Rain
9:35 AM 65.5 °F 65.3 °F 99% 29.93 in 4.0 mi South 4.6 mph - 0.06 in Rain Rain
9:55 AM 65.3 °F 65.3 °F 100% 29.93 in 5.0 mi SSW 4.6 mph - 0.10 in Rain Rain
10:15 AM 65.3 °F 64.8 °F 98% 29.92 in 5.0 mi South 4.6 mph - 0.03 in Rain Rain
10:35 AM 65.3 °F 65.1 °F 99% 29.92 in 7.0 mi South 4.6 mph - 0.06 in Rain Light Rain
10:55 AM 65.7 °F 65.5 °F 99% 29.92 in 5.0 mi South 5.8 mph - 0.08 in Rain Rain
11:15 AM 66.0 °F 65.5 °F 98% 29.91 in 7.0 mi South 4.6 mph - 0.02 in Rain Light Rain
11:35 AM 66.4 °F 66.2 °F 99% 29.91 in 10.0 mi South 3.5 mph - 0.02 in Rain Light Rain
12:15 PM 67.5 °F 66.2 °F 96% 29.90 in 10.0 mi SW 6.9 mph - N/A   Overcast
12:35 PM 68.9 °F 66.2 °F 91% 29.89 in 10.0 mi West 5.8 mph - N/A   Overcast
12:55 PM 69.1 °F 66.0 °F 90% 29.89 in 10.0 mi WSW 6.9 mph - N/A   Overcast
1:15 PM 70.2 °F 66.6 °F 88% 29.89 in 10.0 mi WSW 8.1 mph - N/A   Overcast
1:35 PM 71.8 °F 66.9 °F 85% 29.88 in 10.0 mi West 8.1 mph - 0.01 in   Overcast
1:55 PM 72.7 °F 66.0 °F 80% 29.88 in 10.0 mi WSW 9.2 mph - 0.01 in   Overcast
2:15 PM 73.6 °F 66.4 °F 78% 29.88 in 10.0 mi WSW 6.9 mph - N/A   Mostly Cloudy
2:35 PM 73.4 °F 65.7 °F 77% 29.88 in 10.0 mi WSW 6.9 mph - N/A   Overcast
2:55 PM 73.2 °F 64.6 °F 74% 29.88 in 10.0 mi West 8.1 mph - N/A   Overcast
3:15 PM 71.8 °F 63.0 °F 74% 29.87 in 10.0 mi NNW 11.5 mph 16.1 mph N/A   Overcast
3:35 PM 68.0 °F 63.3 °F 85% 29.87 in 10.0 mi NW 4.6 mph - N/A Rain Light Rain
3:55 PM 69.3 °F 64.8 °F 86% 29.87 in 7.0 mi Calm Calm - N/A Rain Light Rain
4:15 PM 69.8 °F 64.2 °F 82% 29.87 in 10.0 mi West 4.6 mph - N/A   Mostly Cloudy
4:35 PM 70.2 °F 63.7 °F 80% 29.87 in 10.0 mi WNW 5.8 mph - N/A   Overcast
5:15 PM 71.4 °F 63.3 °F 76% 29.86 in 10.0 mi West 4.6 mph - N/A   Mostly Cloudy
5:35 PM 70.7 °F 63.7 °F 78% 29.86 in 10.0 mi WNW 3.5 mph - N/A   Mostly Cloudy
5:55 PM 71.6 °F 63.3 °F 75% 29.86 in 10.0 mi West 3.5 mph - N/A   Mostly Cloudy
6:15 PM 71.6 °F 63.3 °F 75% 29.86 in 10.0 mi Calm Calm - N/A   Mostly Cloudy
6:35 PM 70.0 °F 63.3 °F 79% 29.86 in 10.0 mi Calm Calm - N/A   Scattered Clouds
6:55 PM 68.9 °F 64.6 °F 86% 29.87 in 10.0 mi Calm Calm - N/A   Mostly Cloudy
7:15 PM 68.4 °F 65.5 °F 90% 29.87 in 5.0 mi WSW 9.2 mph - 0.02 in Rain Rain
7:35 PM 66.2 °F 64.0 °F 93% 29.87 in 10.0 mi SSW 3.5 mph - 0.04 in Rain Light Rain
7:55 PM 65.1 °F 63.7 °F 95% 29.87 in 10.0 mi Calm Calm - 0.04 in Rain Light Rain
8:15 PM 64.8 °F 63.7 °F 96% 29.88 in 10.0 mi Calm Calm - N/A Rain Light Rain
8:35 PM 64.8 °F 63.9 °F 97% 29.90 in 10.0 mi South 3.5 mph - 0.01 in Rain Light Rain
8:55 PM 64.4 °F 63.7 °F 98% 29.89 in 7.0 mi SSW 6.9 mph - 0.04 in Rain Rain
9:15 PM 64.4 °F 63.9 °F 98% 29.91 in 7.0 mi NW 5.8 mph - 0.04 in Rain Heavy Rain
9:35 PM 63.9 °F 63.9 °F 100% 29.91 in 5.0 mi WNW 3.5 mph - 0.18 in Rain Rain
9:55 PM 64.0 °F 64.0 °F 100% 29.92 in 5.0 mi WNW 4.6 mph - 0.24 in Rain Rain
10:15 PM 64.0 °F 64.0 °F 100% 29.92 in 5.0 mi WNW 4.6 mph - 0.04 in Rain Light Rain
10:35 PM 64.4 °F 64.4 °F 100% 29.93 in 10.0 mi WNW 8.1 mph - 0.05 in Rain Light Rain
10:55 PM 64.6 °F 64.0 °F 98% 29.93 in 10.0 mi NNW 5.8 mph - 0.05 in Rain Light Rain
11:15 PM 64.4 °F 63.7 °F 98% 29.94 in 10.0 mi NNW 5.8 mph - N/A   Overcast
11:35 PM 64.2 °F 62.2 °F 93% 29.94 in 10.0 mi North 9.2 mph - N/A   Overcast
11:55 PM 63.1 °F 61.0 °F 93% 29.94 in 10.0 mi NNW 11.5 mph 16.1 mph N/A   Overcast